Time,TemperatureF,DewpointF,PressureIn,WindDirection,WindDirectionDegrees,WindSpeedMPH,WindSpeedGustMPH,Humidity,HourlyPrecipIn,Conditions,Clouds,dailyrainin,SoftwareType,DateUTC
2013-05-31 00:00:00,40.0,-99.9,-100.00,West,263,8.0,11.0,-999,-99.99,,,-99.99,,2013-05-31 06:00:00,
2013-05-31 00:32:00,40.0,-99.9,-100.00,West,263,8.0,11.0,-999,-99.99,,,-99.99,,2013-05-31 06:32:00,
2013-05-31 00:42:00,40.0,-99.9,-100.00,West,263,8.0,11.0,-999,-99.99,,,-99.99,,2013-05-31 06:42:00,
2013-05-31 00:52:00,40.0,-99.9,-100.00,West,263,8.0,11.0,-999,-99.99,,,-99.99,,2013-05-31 06:52:00,
2013-05-31 01:00:00,42.0,-99.9,-100.00,West,279,21.0,22.0,-999,-99.99,,,-99.99,,2013-05-31 07:00:00,
2013-05-31 01:32:00,42.0,-99.9,-100.00,West,279,21.0,22.0,-999,-99.99,,,-99.99,,2013-05-31 07:32:00,
2013-05-31 01:42:00,42.0,-99.9,-100.00,West,279,21.0,22.0,-999,-99.99,,,-99.99,,2013-05-31 07:42:00,
2013-05-31 01:53:00,42.0,-99.9,-100.00,West,279,21.0,22.0,-999,-99.99,,,-99.99,,2013-05-31 07:53:00,
2013-05-31 02:00:00,40.0,-99.9,-100.00,West,260,14.0,19.0,-999,-99.99,,,-99.99,,2013-05-31 08:00:00,
2013-05-31 02:32:00,40.0,-99.9,-100.00,West,260,14.0,19.0,-999,-99.99,,,-99.99,,2013-05-31 08:32:00,
2013-05-31 02:42:00,40.0,-99.9,-100.00,West,260,14.0,19.0,-999,-99.99,,,-99.99,,2013-05-31 08:42:00,
2013-05-31 02:52:00,40.0,-99.9,-100.00,West,260,14.0,19.0,-999,-99.99,,,-99.99,,2013-05-31 08:52:00,
2013-05-31 03:00:00,40.0,-99.9,-100.00,West,260,23.0,25.0,-999,-99.99,,,-99.99,,2013-05-31 09:00:00,
2013-05-31 03:33:00,40.0,-99.9,-100.00,West,260,23.0,25.0,-999,-99.99,,,-99.99,,2013-05-31 09:33:00,
2013-05-31 03:43:00,40.0,-99.9,-100.00,West,260,23.0,25.0,-999,-99.99,,,-99.99,,2013-05-31 09:43:00,
2013-05-31 03:53:00,40.0,-99.9,-100.00,West,260,23.0,25.0,-999,-99.99,,,-99.99,,2013-05-31 09:53:00,
2013-05-31 04:00:00,40.0,-99.9,-100.00,WSW,252,20.0,24.0,-999,-99.99,,,-99.99,,2013-05-31 10:00:00,
2013-05-31 04:33:00,40.0,-99.9,-100.00,WSW,252,20.0,24.0,-999,-99.99,,,-99.99,,2013-05-31 10:33:00,
2013-05-31 04:42:00,40.0,-99.9,-100.00,WSW,252,20.0,24.0,-999,-99.99,,,-99.99,,2013-05-31 10:42:00,
2013-05-31 04:53:00,40.0,-99.9,-100.00,WSW,252,20.0,24.0,-999,-99.99,,,-99.99,,2013-05-31 10:53:00,
2013-05-31 05:00:00,40.0,-99.9,-100.00,West,270,20.0,23.0,-999,-99.99,,,-99.99,,2013-05-31 11:00:00,
2013-05-31 05:32:00,40.0,-99.9,-100.00,West,270,20.0,23.0,-999,-99.99,,,-99.99,,2013-05-31 11:32:00,
2013-05-31 05:42:00,40.0,-99.9,-100.00,West,270,20.0,23.0,-999,-99.99,,,-99.99,,2013-05-31 11:42:00,
2013-05-31 05:52:00,40.0,-99.9,-100.00,West,270,20.0,23.0,-999,-99.99,,,-99.99,,2013-05-31 11:52:00,
2013-05-31 06:00:00,39.0,-99.9,-100.00,WSW,255,17.0,23.0,-999,-99.99,,,-99.99,,2013-05-31 12:00:00,
2013-05-31 06:32:00,39.0,-99.9,-100.00,WSW,255,17.0,23.0,-999,-99.99,,,-99.99,,2013-05-31 12:32:00,
2013-05-31 06:42:00,39.0,-99.9,-100.00,WSW,255,17.0,23.0,-999,-99.99,,,-99.99,,2013-05-31 12:42:00,
2013-05-31 06:52:00,39.0,-99.9,-100.00,WSW,255,17.0,23.0,-999,-99.99,,,-99.99,,2013-05-31 12:52:00,
2013-05-31 07:00:00,42.0,-99.9,-100.00,West,267,17.0,30.0,-999,-99.99,,,-99.99,,2013-05-31 13:00:00,
2013-05-31 07:32:00,42.0,-99.9,-100.00,West,267,17.0,30.0,-999,-99.99,,,-99.99,,2013-05-31 13:32:00,
2013-05-31 07:42:00,42.0,-99.9,-100.00,West,267,17.0,30.0,-999,-99.99,,,-99.99,,2013-05-31 13:42:00,
2013-05-31 07:52:00,42.0,-99.9,-100.00,West,267,17.0,30.0,-999,-99.99,,,-99.99,,2013-05-31 13:52:00,
2013-05-31 08:00:00,43.0,-99.9,-100.00,WSW,255,27.0,41.0,-999,-99.99,,,-99.99,,2013-05-31 14:00:00,
2013-05-31 08:32:00,43.0,-99.9,-100.00,WSW,255,27.0,41.0,-999,-99.99,,,-99.99,,2013-05-31 14:32:00,
2013-05-31 08:42:00,43.0,-99.9,-100.00,WSW,255,27.0,41.0,-999,-99.99,,,-99.99,,2013-05-31 14:42:00,
2013-05-31 08:52:00,43.0,-99.9,-100.00,WSW,255,27.0,41.0,-999,-99.99,,,-99.99,,2013-05-31 14:52:00,
2013-05-31 09:00:00,44.0,-99.9,-100.00,WSW,251,37.0,41.0,-999,-99.99,,,-99.99,,2013-05-31 15:00:00,
2013-05-31 09:33:00,44.0,-99.9,-100.00,WSW,251,37.0,41.0,-999,-99.99,,,-99.99,,2013-05-31 15:33:00,
2013-05-31 09:43:00,44.0,-99.9,-100.00,WSW,251,37.0,41.0,-999,-99.99,,,-99.99,,2013-05-31 15:43:00,
2013-05-31 09:53:00,44.0,-99.9,-100.00,WSW,251,37.0,41.0,-999,-99.99,,,-99.99,,2013-05-31 15:53:00,
2013-05-31 10:00:00,46.0,-99.9,-100.00,West,260,29.0,38.0,-999,-99.99,,,-99.99,,2013-05-31 16:00:00,
2013-05-31 10:33:00,46.0,-99.9,-100.00,West,260,29.0,38.0,-999,-99.99,,,-99.99,,2013-05-31 16:33:00,
2013-05-31 10:42:00,46.0,-99.9,-100.00,West,260,29.0,38.0,-999,-99.99,,,-99.99,,2013-05-31 16:42:00,
2013-05-31 10:53:00,46.0,-99.9,-100.00,West,260,29.0,38.0,-999,-99.99,,,-99.99,,2013-05-31 16:53:00,
2013-05-31 11:00:00,47.0,-99.9,-100.00,West,259,30.0,36.0,-999,-99.99,,,-99.99,,2013-05-31 17:00:00,
2013-05-31 11:32:00,47.0,-99.9,-100.00,West,259,30.0,36.0,-999,-99.99,,,-99.99,,2013-05-31 17:32:00,
2013-05-31 11:42:00,47.0,-99.9,-100.00,West,259,30.0,36.0,-999,-99.99,,,-99.99,,2013-05-31 17:42:00,
2013-05-31 11:53:00,47.0,-99.9,-100.00,West,259,30.0,36.0,-999,-99.99,,,-99.99,,2013-05-31 17:53:00,
2013-05-31 12:00:00,49.0,-99.9,-100.00,West,270,27.0,41.0,-999,-99.99,,,-99.99,,2013-05-31 18:00:00,
2013-05-31 12:32:00,49.0,-99.9,-100.00,West,270,27.0,41.0,-999,-99.99,,,-99.99,,2013-05-31 18:32:00,
2013-05-31 12:42:00,49.0,-99.9,-100.00,West,270,27.0,41.0,-999,-99.99,,,-99.99,,2013-05-31 18:42:00,
2013-05-31 12:52:00,49.0,-99.9,-100.00,West,270,27.0,41.0,-999,-99.99,,,-99.99,,2013-05-31 18:52:00,
2013-05-31 13:00:00,52.0,-99.9,-100.00,West,276,30.0,41.0,-999,-99.99,,,-99.99,,2013-05-31 19:00:00,
2013-05-31 13:32:00,52.0,-99.9,-100.00,West,276,30.0,41.0,-999,-99.99,,,-99.99,,2013-05-31 19:32:00,
2013-05-31 13:42:00,52.0,-99.9,-100.00,West,276,30.0,41.0,-999,-99.99,,,-99.99,,2013-05-31 19:42:00,
2013-05-31 13:52:00,52.0,-99.9,-100.00,West,276,30.0,41.0,-999,-99.99,,,-99.99,,2013-05-31 19:52:00,
2013-05-31 14:00:00,52.0,-99.9,-100.00,WSW,255,36.0,40.0,-999,-99.99,,,-99.99,,2013-05-31 20:00:00,
2013-05-31 14:32:00,52.0,-99.9,-100.00,WSW,255,36.0,40.0,-999,-99.99,,,-99.99,,2013-05-31 20:32:00,
2013-05-31 14:42:00,52.0,-99.9,-100.00,WSW,255,36.0,40.0,-999,-99.99,,,-99.99,,2013-05-31 20:42:00,
2013-05-31 14:52:00,52.0,-99.9,-100.00,WSW,255,36.0,40.0,-999,-99.99,,,-99.99,,2013-05-31 20:52:00,
2013-05-31 15:00:00,54.0,-99.9,-100.00,West,274,31.0,43.0,-999,-99.99,,,-99.99,,2013-05-31 21:00:00,
2013-05-31 15:33:00,54.0,-99.9,-100.00,West,274,31.0,43.0,-999,-99.99,,,-99.99,,2013-05-31 21:33:00,
2013-05-31 15:43:00,54.0,-99.9,-100.00,West,274,31.0,43.0,-999,-99.99,,,-99.99,,2013-05-31 21:43:00,
2013-05-31 15:54:00,54.0,-99.9,-100.00,West,274,31.0,43.0,-999,-99.99,,,-99.99,,2013-05-31 21:54:00,
2013-05-31 16:00:00,54.0,-99.9,-100.00,West,261,37.0,43.0,-999,-99.99,,,-99.99,,2013-05-31 22:00:00,
2013-05-31 16:33:00,54.0,-99.9,-100.00,West,261,37.0,43.0,-999,-99.99,,,-99.99,,2013-05-31 22:33:00,
2013-05-31 16:42:00,54.0,-99.9,-100.00,West,261,37.0,43.0,-999,-99.99,,,-99.99,,2013-05-31 22:42:00,
2013-05-31 16:53:00,54.0,-99.9,-100.00,West,261,37.0,43.0,-999,-99.99,,,-99.99,,2013-05-31 22:53:00,
2013-05-31 17:00:00,54.0,-99.9,-100.00,West,263,29.0,40.0,-999,-99.99,,,-99.99,,2013-05-31 23:00:00,
2013-05-31 17:32:00,54.0,-99.9,-100.00,West,263,29.0,40.0,-999,-99.99,,,-99.99,,2013-05-31 23:32:00,
2013-05-31 17:43:00,54.0,-99.9,-100.00,West,263,29.0,40.0,-999,-99.99,,,-99.99,,2013-05-31 23:43:00,
2013-05-31 17:52:00,54.0,-99.9,-100.00,West,263,29.0,40.0,-999,-99.99,,,-99.99,,2013-05-31 23:52:00,
2013-05-31 18:00:00,54.0,-99.9,-100.00,WNW,288,31.0,35.0,-999,-99.99,,,-99.99,,2013-06-01 00:00:00,
2013-05-31 18:32:00,54.0,-99.9,-100.00,WNW,288,31.0,35.0,-999,-99.99,,,-99.99,,2013-06-01 00:32:00,
2013-05-31 18:42:00,54.0,-99.9,-100.00,WNW,288,31.0,35.0,-999,-99.99,,,-99.99,,2013-06-01 00:42:00,
2013-05-31 18:52:00,54.0,-99.9,-100.00,WNW,288,31.0,35.0,-999,-99.99,,,-99.99,,2013-06-01 00:52:00,
2013-05-31 19:00:00,54.0,-99.9,-100.00,West,273,27.0,30.0,-999,-99.99,,,-99.99,,2013-06-01 01:00:00,
2013-05-31 19:32:00,54.0,-99.9,-100.00,West,273,27.0,30.0,-999,-99.99,,,-99.99,,2013-06-01 01:32:00,
2013-05-31 19:42:00,54.0,-99.9,-100.00,West,273,27.0,30.0,-999,-99.99,,,-99.99,,2013-06-01 01:42:00,
2013-05-31 19:52:00,54.0,-99.9,-100.00,West,273,27.0,30.0,-999,-99.99,,,-99.99,,2013-06-01 01:52:00,
2013-05-31 20:00:00,48.0,-99.9,-100.00,NW,318,19.0,28.0,-999,-99.99,,,-99.99,,2013-06-01 02:00:00,
2013-05-31 20:32:00,48.0,-99.9,-100.00,NW,318,19.0,28.0,-999,-99.99,,,-99.99,,2013-06-01 02:32:00,
2013-05-31 20:42:00,48.0,-99.9,-100.00,NW,318,19.0,28.0,-999,-99.99,,,-99.99,,2013-06-01 02:42:00,
2013-05-31 20:52:00,48.0,-99.9,-100.00,NW,318,19.0,28.0,-999,-99.99,,,-99.99,,2013-06-01 02:52:00,
2013-05-31 21:00:00,44.0,-99.9,-100.00,WNW,302,18.0,26.0,-999,-99.99,,,-99.99,,2013-06-01 03:00:00,
2013-05-31 21:33:00,44.0,-99.9,-100.00,WNW,302,18.0,26.0,-999,-99.99,,,-99.99,,2013-06-01 03:33:00,
2013-05-31 21:43:00,44.0,-99.9,-100.00,WNW,302,18.0,26.0,-999,-99.99,,,-99.99,,2013-06-01 03:43:00,
2013-05-31 21:53:00,44.0,-99.9,-100.00,WNW,302,18.0,26.0,-999,-99.99,,,-99.99,,2013-06-01 03:53:00,
2013-05-31 22:00:00,43.0,-99.9,-100.00,NW,318,15.0,22.0,-999,-99.99,,,-99.99,,2013-06-01 04:00:00,
2013-05-31 22:33:00,43.0,-99.9,-100.00,NW,318,15.0,22.0,-999,-99.99,,,-99.99,,2013-06-01 04:33:00,
2013-05-31 22:42:00,43.0,-99.9,-100.00,NW,318,15.0,22.0,-999,-99.99,,,-99.99,,2013-06-01 04:42:00,
2013-05-31 22:53:00,43.0,-99.9,-100.00,NW,318,15.0,22.0,-999,-99.99,,,-99.99,,2013-06-01 04:53:00,
2013-05-31 23:00:00,41.0,-99.9,-100.00,WNW,298,18.0,21.0,-999,-99.99,,,-99.99,,2013-06-01 05:00:00,
2013-05-31 23:32:00,41.0,-99.9,-100.00,WNW,298,18.0,21.0,-999,-99.99,,,-99.99,,2013-06-01 05:32:00,
2013-05-31 23:43:00,41.0,-99.9,-100.00,WNW,298,18.0,21.0,-999,-99.99,,,-99.99,,2013-06-01 05:43:00,
2013-05-31 23:52:00,41.0,-99.9,-100.00,WNW,298,18.0,21.0,-999,-99.99,,,-99.99,,2013-06-01 05:52:00,